Dewpoint
37 38 39 40 37 37 37 36 36 42 39 43 43 44 45 45 45 43 43 43 44 44 46 47 47 48 49
37 36 37 37 36 36 33 31 34 40 38 39 42 43 45 44 43 42 42 40 40 40 40 42 42 45 47
35 36 37 36 36 35 34 35 31 37 36 38 39 41 43 43 43 43 40 41 40 41 42 42 43 43 43
34 34 35 36 36 35 34 35 33 27 34 39 39 40 41 41 43 45 43 41 39 39 41 42 42 44 44
32 33 33 34 33 35 34 33 33 34 34 36 37 37 37 37 38 42 38 37 39 40 40 41 41 43 42
31 31 31 32 34 34 34 33 31 35 35 35 35 35 34 34 38 36 37 37 38 39 40 40 41 42 43
30 31 31 31 34 34 34 34 32 35 34 32 33 33 35 28 37 37 37 37 38 39 40 40 41 42 41
37 34 32 34 35 35 35 34 34 33 35 30 30 30 31 31 36 37 36 37 38 40 40 40 40 41 41
37 38 40 42 40 37 35 34 33 33 34 33 32 31 32 32 32 35 35 38 40 36 34 33 34 35 37
31 34 35 34 41 39 37 34 33 31 34 33 32 31 30 33 34 33 34 41 38 35 34 35 35 33 32
35 32 32 34 35 37 38 36 34 33 36 35 33 31 31 30 32 33 34 36 36 34 35 33 33 34 32
36 32 33 33 35 37 38 38 38 36 36 37 33 33 31 29 28 31 33 34 33 32 32 33 33 33 34
34 35 35 36 35 35 34 35 34 35 36 34 35 34 33 29 27 28 28 31 33 33 33 33 32 33 31
31 32 33 35 34 34 33 33 33 33 33 33 34 34 33 33 32 29 31 29 30 31 32 31 31 31 31
31 32 31 33 33 34 33 32 31 30 30 33 33 33 32 32 29 29 30 30 30 31 31 29 29 29 29
31 31 32 32 31 32 32 30 28 28 29 31 30 30 30 31 31 28 29 29 30 30 29 28 27 27 27
31 31 31 32 32 31 30 29 28 28 28 29 30 28 25 22 26 32 28 27 28 29 29 28 27 26 26
Lifted_Index
13 14 14 14 15 16 16 17 17 17 17 17 16 15 14 14 15 15 15 15 15 15 14 14 13 12 12
13 14 14 15 15 16 16 17 17 17 18 17 17 16 15 15 15 15 16 16 16 16 15 15 14 14 13
14 14 14 15 16 16 16 17 17 17 18 18 17 16 16 15 15 16 16 16 17 16 16 16 16 15 15
13 14 14 14 15 15 16 16 17 17 17 17 17 17 17 17 16 16 17 17 17 17 17 16 16 16 15
13 12 12 13 14 14 15 15 16 16 17 17 16 17 17 17 17 17 17 18 18 17 17 17 16 16 15
12 12 12 12 13 13 14 14 14 15 16 16 16 16 16 17 17 17 18 18 17 17 17 16 16 15 15
12 12 12 12 12 13 13 13 14 14 15 15 15 15 15 16 16 17 17 17 16 16 16 16 15 15 15
12 12 12 11 12 12 13 13 13 14 14 15 15 15 15 15 16 16 16 15 15 15 15 15 15 15 15
11 11 11 11 11 11 12 12 13 13 14 14 14 15 15 15 15 15 15 14 14 14 15 15 16 16 16
10 10 10 10 10 10 10 11 12 12 13 13 13 14 14 14 14 14 14 13 13 14 15 15 15 16 16
8 8 9 9 8 8 8 9 10 10 11 11 12 12 12 13 13 13 13 12 12 13 14 14 14 14 15
7 7 7 7 7 7 7 7 8 8 9 9 10 10 11 11 11 12 11 11 11 12 12 12 13 13 13
7 7 6 6 6 6 6 7 7 7 8 8 8 9 9 10 10 11 11 11 11 11 11 11 11 12 12
6 6 6 5 6 6 6 7 7 8 8 8 9 9 9 9 10 10 11 11 11 10 10 11 11 11 11
5 5 5 5 5 6 6 7 8 8 8 8 9 9 9 9 10 10 10 10 10 10 10 11 11 11 12
4 4 4 4 5 5 6 6 7 8 8 8 8 9 9 9 9 10 10 10 10 10 10 10 11 11 11
4 4 4 4 4 5 5 5 6 7 7 8 8 8 8 8 9 9 10 10 10 10 10 10 10 11 11